Regional Weather Roundup
Issued by NWS

Home | Current Version | Previous Version | Graphics & Text | Print | Product List | Glossary On
Versions: 1 2 3 4 5 6 7 8 9 10 11 12 13 14 15 16 17 18 19 20 21 22 23 24 25 26 27 28 29 30 31 32 33 34 35 36 37 38 39 40 41 42 43 44 45 46 47 48 49 50
510
ASUS45 KCYS 221510
RWRWY

WYOMING REGIONAL WEATHER ROUNDUP
NATIONAL WEATHER SERVICE CHEYENNE WY
800 AM MST MON JAN 22 2018

NOTE:  "FAIR" INDICATES FEW OR NO CLOUDS BELOW 12,000 FEET
WITH NO SIGNIFICANT WEATHER AND/OR OBSTRUCTIONS TO VISIBILITY.

WYZ001-221600-
YELLOWSTONE NATIONAL PARK

CITY           SKY/WX    TMP DP  RH WIND       PRES   REMARKS
LK YELLOWSTONE   N/A      5   3  91 CALM      30.12F
W YELLOWSTONE  NOT AVBL

$$
WYZ002>013-054>058-071-098>099-221600-
NORTHERN WYOMING

CITY           SKY/WX    TMP DP  RH WIND       PRES   REMARKS
JACKSON        LGT SNOW   0  -4  85 N5        30.21S FOG     WCI -10
CODY           FAIR      22   9  57 N8        30.05R WCI  12
GREYBULL       FAIR       1  -2  87 N6        30.11S WCI -10
WORLAND        FAIR       2  -1  88 S8        30.09S WCI -12
SHERIDAN       FAIR      10   4  76 NW3       30.01R
BUFFALO        FAIR      24   3  40 W9        29.99R WCI  14
GILLETTE       FAIR      21   9  59 S3        29.99S
HULETT         FAIR      18  12  79 S10       30.00S WCI   6
NEWCASTLE      FAIR      14   9  79 CALM      30.01R

$$
WYZ014>020-022>026-101>103-221600-
CENTRAL WYOMING

CITY           SKY/WX    TMP DP  RH WIND       PRES   REMARKS
BIG PINEY      FAIR      -4  -8  83 CALM      30.15R
PINEDALE       FAIR       3  -4  72 NW13      30.13R WCI -14
DUBOIS         FAIR      14   3  62 NW18      30.05R WCI  -3
LANDER         FAIR       9  -1  64 CALM      30.04S
RIVERTON       FAIR       2  -2  83 N5        30.06S WCI  -8
CASPER         FAIR      12   5  73 SW25      30.06S WCI  -8
DOUGLAS        FAIR       5   1  83 NW9       30.03R WCI  -9

$$
WYZ021-027>030-104>119-221600-
SOUTHERN WYOMING

CITY           SKY/WX    TMP DP  RH WIND       PRES   REMARKS
EVANSTON       FAIR       7   4  87 SW12      30.18S WCI  -8
ROCK SPRINGS   FAIR       9   5  84 W20       30.15F WCI -10
DIXON            N/A      1  -3  83 E6        30.25R WCI -11
RAWLINS        FAIR      12   6  77 SW6       30.11R WCI   3
SARATOGA       FAIR       3   1  92 S12       30.14R WCI -13
LARAMIE        FAIR      -1  -4  87 E6        30.02R WCI -13
CHEYENNE       FAIR      18   6  59 W16G23    29.95F WCI   3
TORRINGTON     FAIR      12   5  73 NW13      30.01R WCI  -3

$$




USA.gov is the U.S. government's official web portal to all federal, state and local government web resources and services.